Location: Bretagne
(43.8474°N, 0.4650°W)
Time: 06:12:58
(UTC+00:00)

Cosmos 909 Rocket - Pass Details

Date: 15 January 2026
Orbit: 992 x 2087 km, 65.9° (Epoch: 10 February)

Event Time Altitude Azimuth Distance (km) Brightness Sun altitude
Rises 19:21:28 0° 203° (SSW) 4,532 7.8 -26.8°
Reaches altitude 10° 19:24:37 10° 202° (SSW) 3,402 7.1 -27.4°
Maximum altitude 19:32:32 73° 120° (ESE) 1,205 4.2 -28.8°
Enters shadow 19:32:59 70° 91° (E) 1,209 4.1 -28.9°
